Zurück zum Katalog

STARLINK-34178

AktivKommunikationVLEO
NORAD 64096·PAYLOAD·🇺🇸 United States

Gestartet May 23, 2025 von Vandenberg Space Force Base

Loading…

Nächste Überflüge (nächste 24 Stunden)

TLE

AktuellSource: CelesTrak SupGP

Epoche: Sep 15, 2026, 02:19 UTC

1 64096C 25110A   26258.09701389 -.00039920  00000+0 -12836-2 0  2588
2 64096  53.1587 226.3012 0001418  86.8691 186.7615 15.31724797    15

Verfolge STARLINK-34178 in Echtzeit mit AllMySat

Download on the App Store